Temp
-12 -11 -12 -12 -12 -12 -12 -13 -13 -12 -12 -12 -13 -12 -12 -12 -12 -12 -12 -13 -13 -13 -13 -14 -14 -15 -15 -14 -14 -13 -12 -11 -11 -12 -12 -13 -12 -12 -11 -11 -11 -10 -11 -11 -10
-12 -12 -12 -13 -13 -13 -13 -13 -13 -13 -13 -13 -13 -13 -12 -13 -12 -13 -14 -14 -14 -15 -14 -14 -15 -15 -15 -15 -14 -14 -12 -12 -12 -13 -13 -13 -13 -12 -12 -12 -11 -11 -11 -11 -11
-12 -12 -13 -13 -13 -13 -13 -13 -13 -13 -13 -13 -13 -13 -13 -13 -13 -14 -15 -14 -16 -16 -17 -16 -17 -16 -15 -15 -15 -15 -13 -13 -14 -15 -14 -13 -13 -13 -12 -12 -12 -12 -11 -11 -11
-12 -12 -13 -13 -13 -13 -14 -14 -14 -14 -13 -13 -13 -13 -13 -13 -15 -16 -15 -16 -17 -18 -18 -18 -18 -18 -17 -16 -17 -16 -15 -15 -15 -15 -15 -14 -13 -13 -13 -13 -13 -13 -12 -11 -11
-13 -13 -13 -13 -13 -14 -14 -14 -14 -14 -14 -13 -14 -14 -14 -15 -16 -18 -18 -18 -18 -19 -19 -19 -19 -20 -19 -18 -18 -18 -17 -16 -16 -16 -16 -15 -14 -13 -14 -14 -14 -13 -13 -12 -12
-13 -13 -13 -13 -14 -14 -14 -14 -14 -14 -14 -14 -15 -15 -16 -16 -17 -18 -19 -20 -20 -20 -20 -19 -20 -21 -20 -20 -19 -18 -18 -18 -17 -17 -16 -16 -15 -14 -14 -14 -14 -14 -14 -13 -13
-13 -14 -13 -14 -14 -15 -15 -14 -14 -14 -14 -15 -15 -16 -17 -18 -18 -19 -20 -21 -22 -22 -21 -21 -21 -21 -21 -21 -20 -20 -19 -19 -18 -17 -17 -16 -16 -15 -14 -14 -15 -15 -15 -14 -14
-13 -14 -14 -14 -15 -15 -14 -14 -14 -14 -15 -15 -16 -17 -18 -19 -20 -21 -21 -22 -22 -22 -23 -22 -22 -22 -21 -21 -21 -20 -20 -19 -19 -18 -17 -17 -16 -16 -15 -15 -15 -15 -15 -15 -15
-13 -14 -14 -14 -15 -15 -15 -14 -15 -15 -15 -16 -18 -19 -20 -20 -21 -22 -22 -22 -23 -23 -23 -23 -23 -22 -22 -21 -21 -21 -20 -20 -19 -19 -18 -17 -17 -16 -16 -16 -16 -16 -15 -15 -15
-14 -14 -14 -15 -15 -15 -15 -15 -15 -16 -17 -18 -18 -20 -21 -22 -22 -22 -22 -23 -23 -23 -23 -23 -23 -22 -22 -22 -21 -21 -21 -20 -20 -19 -19 -18 -18 -17 -16 -16 -16 -16 -16 -15 -15
-14 -14 -15 -15 -16 -15 -15 -15 -15 -16 -18 -19 -20 -21 -22 -23 -23 -23 -23 -23 -23 -23 -23 -23 -23 -22 -22 -22 -22 -22 -21 -21 -21 -20 -20 -19 -19 -17 -17 -16 -16 -16 -16 -16 -15
-14 -15 -15 -16 -16 -15 -15 -16 -16 -16 -18 -20 -21 -22 -23 -23 -24 -24 -24 -24 -23 -24 -24 -24 -23 -23 -23 -23 -23 -22 -22 -22 -22 -21 -20 -20 -19 -18 -17 -17 -17 -16 -16 -16 -16
-15 -15 -16 -16 -16 -16 -16 -16 -17 -18 -19 -21 -22 -23 -24 -25 -25 -25 -25 -24 -24 -24 -25 -24 -23 -24 -24 -23 -22 -23 -23 -22 -22 -22 -21 -20 -19 -19 -18 -17 -17 -17 -17 -16 -16
-15 -15 -16 -16 -16 -16 -16 -17 -18 -19 -20 -23 -24 -25 -25 -25 -25 -25 -25 -25 -25 -25 -25 -25 -25 -24 -24 -24 -24 -24 -23 -23 -22 -22 -21 -21 -20 -19 -19 -18 -18 -17 -17 -17 -17
-15 -16 -17 -16 -16 -16 -17 -18 -18 -19 -22 -24 -25 -26 -26 -26 -26 -26 -26 -25 -25 -25 -25 -25 -25 -25 -25 -24 -24 -23 -23 -23 -23 -23 -22 -21 -20 -19 -19 -18 -18 -18 -17 -17 -17
-16 -17 -17 -17 -17 -17 -18 -18 -19 -21 -23 -25 -26 -27 -27 -26 -26 -26 -25 -25 -25 -25 -25 -25 -25 -25 -25 -25 -25 -24 -24 -23 -23 -23 -22 -21 -21 -20 -19 -19 -18 -18 -18 -17 -17
-16 -17 -17 -17 -16 -17 -19 -19 -20 -22 -24 -26 -27 -27 -27 -27 -26 -25 -25 -25 -25 -25 -25 -25 -25 -25 -25 -24 -24 -24 -24 -23 -23 -23 -22 -21 -21 -20 -20 -19 -19 -18 -18 -18 -18
-17 -17 -17 -17 -17 -18 -19 -19 -20 -23 -25 -27 -28 -28 -27 -27 -26 -26 -25 -25 -25 -25 -24 -25 -25 -25 -24 -24 -24 -23 -23 -23 -23 -22 -21 -21 -21 -20 -20 -19 -19 -19 -18 -18 -18
-17 -18 -18 -17 -18 -19 -19 -19 -21 -24 -26 -28 -28 -28 -27 -27 -26 -26 -25 -25 -25 -25 -25 -25 -25 -25 -24 -24 -24 -24 -23 -23 -23 -23 -22 -21 -21 -20 -20 -20 -19 -19 -19 -18 -18
-17 -18 -18 -18 -18 -19 -19 -20 -22 -25 -27 -28 -28 -28 -27 -27 -26 -26 -26 -25 -25 -25 -25 -25 -25 -25 -25 -24 -23 -24 -24 -24 -23 -23 -22 -21 -21 -20 -20 -20 -19 -19 -19 -19 -19
-18 -18 -18 -18 -19 -19 -20 -20 -23 -26 -28 -29 -28 -28 -27 -27 -26 -26 -26 -26 -25 -25 -25 -25 -25 -25 -25 -24 -24 -24 -24 -24 -23 -23 -22 -22 -21 -21 -20 -20 -20 -20 -20 -19 -19
-18 -18 -18 -19 -20 -20 -20 -21 -24 -27 -28 -28 -29 -28 -27 -27 -27 -27 -26 -26 -25 -25 -25 -25 -25 -25 -24 -24 -24 -24 -24 -23 -23 -23 -23 -22 -22 -21 -21 -21 -20 -20 -20 -20 -20
-19 -18 -18 -19 -20 -20 -20 -22 -25 -28 -29 -29 -29 -28 -28 -27 -27 -27 -26 -26 -26 -25 -25 -25 -25 -25 -25 -24 -24 -24 -24 -23 -23 -23 -23 -23 -22 -22 -21 -21 -21 -21 -20 -20 -20
-19 -18 -19 -19 -20 -20 -21 -23 -26 -28 -29 -29 -29 -28 -28 -28 -27 -27 -26 -26 -26 -25 -25 -25 -25 -25 -25 -25 -25 -24 -24 -24 -23 -23 -24 -23 -23 -22 -22 -21 -21 -21 -21 -21 -21
-19 -18 -18 -20 -20 -21 -21 -24 -27 -28 -29 -29 -29 -28 -28 -28 -27 -27 -26 -26 -26 -26 -25 -25 -25 -25 -25 -25 -25 -24 -23 -23 -24 -23 -23 -22 -22 -22 -22 -22 -21 -21 -21 -21 -21
-19 -19 -19 -20 -21 -21 -23 -25 -28 -29 -29 -29 -29 -28 -28 -28 -27 -27 -26 -26 -26 -26 -25 -25 -25 -25 -25 -25 -24 -24 -23 -23 -23 -23 -23 -22 -22 -22 -22 -22 -22 -21 -21 -21 -21
-19 -20 -20 -20 -21 -22 -24 -26 -28 -29 -29 -29 -29 -28 -28 -28 -27 -27 -26 -26 -26 -26 -25 -25 -25 -25 -24 -24 -24 -24 -23 -23 -23 -23 -22 -22 -22 -22 -22 -22 -21 -21 -21 -21 -21
Height
5790 5788 5784 5780 5777 5774 5771 5766 5762 5757 5751 5746 5741 5735 5730 5725 5717 5709 5705 5702 5700 5697 5699 5700 5699 5702 5704 5709 5713 5717 5721 5726 5732 5740 5746 5750 5750 5754 5759 5762 5765 5769 5774 5777 5780
5786 5783 5779 5776 5772 5768 5763 5758 5752 5746 5740 5735 5730 5724 5718 5710 5701 5692 5688 5685 5681 5677 5678 5679 5681 5681 5685 5690 5695 5701 5707 5713 5719 5728 5732 5738 5741 5744 5749 5754 5757 5761 5765 5770 5773
5781 5778 5774 5770 5765 5759 5755 5749 5742 5735 5729 5724 5718 5712 5704 5695 5684 5674 5673 5669 5663 5660 5658 5658 5658 5662 5666 5671 5676 5685 5693 5697 5706 5713 5718 5724 5730 5734 5738 5744 5749 5753 5757 5761 5766
5776 5772 5768 5763 5757 5751 5746 5739 5731 5723 5717 5710 5702 5695 5687 5678 5664 5651 5650 5648 5645 5645 5642 5641 5642 5644 5649 5654 5660 5667 5677 5683 5691 5698 5705 5711 5717 5723 5728 5734 5740 5744 5747 5752 5757
5770 5764 5759 5754 5748 5742 5735 5728 5720 5711 5703 5694 5685 5676 5667 5658 5649 5627 5626 5625 5622 5624 5627 5626 5626 5629 5634 5640 5643 5650 5659 5667 5674 5682 5691 5698 5704 5710 5716 5723 5729 5734 5738 5743 5748
5760 5755 5749 5744 5737 5732 5725 5717 5708 5699 5690 5679 5669 5658 5645 5634 5623 5611 5602 5600 5600 5601 5606 5610 5614 5617 5619 5623 5629 5639 5641 5650 5657 5668 5677 5685 5692 5698 5705 5711 5717 5724 5728 5733 5738
5754 5748 5742 5737 5730 5723 5715 5706 5697 5687 5675 5662 5650 5637 5624 5612 5599 5590 5583 5579 5579 5583 5589 5593 5597 5601 5608 5611 5619 5623 5628 5633 5642 5653 5663 5671 5678 5689 5694 5698 5705 5712 5718 5724 5729
5744 5739 5733 5726 5719 5712 5705 5695 5684 5672 5661 5647 5630 5616 5603 5591 5578 5572 5566 5561 5562 5564 5572 5577 5583 5586 5592 5598 5605 5611 5614 5621 5632 5641 5647 5657 5672 5676 5682 5688 5694 5700 5707 5714 5719
5737 5730 5723 5716 5709 5703 5695 5684 5672 5657 5646 5630 5614 5598 5584 5572 5562 5555 5552 5550 5548 5550 5556 5561 5569 5574 5580 5588 5593 5598 5607 5612 5619 5630 5636 5645 5659 5662 5672 5678 5683 5690 5696 5703 5709
5726 5719 5713 5706 5700 5694 5686 5675 5661 5642 5629 5614 5598 5584 5572 5561 5552 5547 5540 5539 5537 5539 5543 5549 5556 5563 5569 5574 5582 5592 5598 5604 5608 5618 5626 5635 5643 5651 5659 5667 5672 5677 5685 5692 5699
5718 5711 5703 5696 5689 5681 5673 5664 5655 5644 5612 5599 5582 5569 5558 5551 5543 5539 5532 5529 5528 5531 5535 5539 5546 5555 5566 5571 5578 5583 5591 5596 5601 5607 5617 5625 5633 5640 5648 5656 5663 5669 5676 5683 5690
5709 5701 5693 5686 5678 5668 5657 5645 5630 5617 5607 5583 5567 5553 5547 5543 5537 5532 5527 5525 5524 5526 5529 5534 5540 5548 5556 5564 5569 5575 5582 5587 5590 5598 5607 5615 5624 5630 5639 5647 5654 5661 5668 5674 5680
5701 5693 5684 5676 5667 5655 5643 5630 5615 5600 5587 5574 5559 5546 5540 5536 5531 5526 5523 5521 5522 5524 5527 5532 5539 5543 5549 5556 5562 5568 5575 5581 5585 5592 5599 5607 5614 5623 5632 5639 5645 5652 5659 5665 5671
5691 5683 5675 5668 5659 5646 5632 5617 5602 5587 5571 5559 5547 5540 5535 5531 5528 5523 5520 5520 5521 5523 5524 5527 5531 5537 5543 5550 5557 5564 5570 5575 5580 5585 5592 5600 5607 5615 5623 5631 5637 5643 5650 5656 5662
5683 5674 5666 5656 5647 5635 5622 5606 5590 5574 5559 5548 5538 5532 5528 5527 5524 5521 5518 5519 5520 5521 5521 5522 5525 5532 5540 5546 5551 5559 5564 5569 5575 5580 5586 5593 5601 5609 5615 5623 5630 5636 5642 5648 5654
5675 5666 5658 5648 5635 5624 5609 5595 5580 5566 5552 5541 5531 5527 5526 5523 5522 5519 5518 5517 5519 5520 5520 5521 5524 5530 5536 5543 5548 5556 5562 5567 5572 5576 5579 5587 5595 5602 5608 5616 5621 5629 5634 5640 5645
5666 5658 5651 5641 5630 5614 5599 5585 5570 5555 5541 5531 5526 5523 5523 5522 5521 5518 5518 5518 5519 5521 5522 5523 5527 5531 5535 5541 5547 5553 5558 5564 5568 5570 5576 5583 5589 5597 5602 5608 5614 5621 5626 5632 5637
5657 5649 5642 5630 5618 5604 5591 5576 5561 5546 5535 5525 5522 5521 5521 5520 5520 5519 5519 5518 5520 5521 5523 5526 5529 5531 5535 5540 5546 5551 5555 5560 5563 5568 5573 5578 5584 5591 5597 5603 5608 5614 5620 5624 5629
5650 5642 5634 5622 5609 5596 5582 5568 5552 5536 5528 5523 5521 5521 5520 5519 5519 5518 5518 5518 5520 5522 5525 5526 5529 5532 5536 5540 5545 5548 5552 5557 5562 5565 5569 5574 5581 5586 5591 5597 5602 5607 5612 5617 5621
5645 5635 5627 5614 5602 5588 5574 5557 5542 5530 5524 5521 5521 5520 5520 5519 5518 5517 5518 5518 5520 5521 5523 5527 5529 5532 5536 5540 5543 5547 5552 5556 5559 5563 5567 5571 5576 5581 5586 5591 5596 5600 5605 5609 5614
5637 5628 5618 5605 5594 5580 5567 5551 5535 5525 5522 5521 5519 5519 5519 5518 5518 5517 5517 5518 5518 5520 5522 5526 5529 5533 5536 5539 5543 5547 5550 5553 5558 5561 5564 5569 5573 5577 5581 5586 5590 5594 5598 5602 5606
5630 5621 5610 5598 5586 5571 5558 5543 5531 5521 5518 5518 5518 5518 5518 5518 5518 5517 5517 5517 5518 5519 5522 5525 5529 5531 5534 5537 5541 5544 5548 5552 5555 5560 5562 5565 5570 5573 5577 5581 5585 5588 5592 5596 5600
5623 5614 5605 5593 5580 5566 5549 5534 5528 5517 5515 5516 5517 5517 5517 5517 5519 5518 5518 5517 5518 5520 5521 5523 5527 5530 5533 5537 5539 5543 5547 5550 5553 5556 5559 5563 5568 5570 5574 5577 5581 5585 5588 5592 5595
5617 5607 5596 5585 5572 5559 5545 5532 5523 5516 5514 5515 5516 5516 5517 5517 5517 5517 5518 5517 5518 5518 5520 5523 5526 5529 5532 5536 5539 5542 5545 5548 5551 5554 5558 5561 5564 5567 5571 5574 5578 5582 5585 5588 5591
5609 5599 5589 5577 5564 5550 5537 5526 5520 5513 5513 5514 5515 5516 5516 5516 5515 5516 5517 5516 5517 5518 5520 5522 5524 5527 5530 5533 5536 5539 5542 5545 5549 5553 5556 5559 5561 5565 5568 5572 5575 5579 5581 5584 5586
5602 5593 5580 5569 5557 5544 5530 5522 5516 5510 5512 5514 5515 5515 5515 5515 5515 5515 5516 5516 5516 5518 5520 5522 5524 5526 5530 5532 5534 5537 5540 5544 5548 5551 5554 5557 5560 5563 5567 5570 5573 5575 5577 5579 5580
5593 5584 5573 5563 5550 5539 5528 5519 5514 5510 5512 5514 5514 5514 5514 5513 5513 5514 5515 5516 5515 5517 5519 5521 5524 5527 5529 5531 5534 5537 5539 5542 5546 5549 5552 5555 5559 5562 5565 5567 5569 5571 5572 5572 5572
Wind_Speed
27 22 23 23 27 28 32 39 44 47 49 51 53 53 59 62 62 64 65 64 64 63 63 66 66 61 61 60 58 56 56 55 52 46 44 43 44 42 41 40 40 39 36 34 35
34 24 23 29 32 34 42 41 50 52 52 56 58 62 67 68 67 68 66 64 65 63 62 62 62 63 66 65 65 63 63 59 55 46 47 48 49 47 45 42 42 43 41 38 37
31 28 30 33 36 40 44 46 53 53 57 60 62 65 65 66 68 68 67 65 62 61 58 56 54 59 63 67 68 66 66 63 55 48 48 50 52 52 50 46 44 43 44 42 40
31 32 34 38 39 41 46 52 54 59 58 64 64 66 67 68 68 69 67 66 63 60 56 50 49 50 55 60 62 64 68 66 59 53 50 50 53 55 54 51 47 46 46 47 47
40 42 43 40 41 43 49 52 57 60 64 67 67 66 68 69 68 77 73 68 63 59 52 48 48 47 49 48 55 63 65 65 60 57 54 53 54 57 58 55 51 49 48 48 47
42 45 43 39 40 46 50 55 60 62 69 71 70 70 69 70 72 72 69 62 58 54 51 49 46 46 47 47 49 53 66 65 63 59 56 55 55 56 59 59 55 53 51 49 49
46 43 44 41 44 48 52 57 60 68 70 72 74 73 73 72 70 66 61 50 48 47 45 45 46 49 46 46 45 47 57 69 66 63 60 58 58 56 58 60 57 55 54 51 50
44 46 42 43 45 48 52 58 66 69 71 75 75 75 74 69 60 51 44 41 42 44 44 44 44 46 49 47 45 46 49 61 68 64 63 59 57 57 57 58 57 57 55 53 52
47 49 45 46 46 49 54 62 67 71 74 77 74 72 69 62 53 46 39 34 34 40 44 45 43 45 47 46 47 47 45 49 63 65 62 61 56 60 57 56 56 56 56 55 54
48 46 46 48 46 52 58 64 69 74 78 74 73 67 65 49 41 35 34 29 27 30 38 44 44 44 45 49 50 48 46 42 52 62 64 60 60 59 58 55 55 56 55 54 55
47 46 47 47 51 55 62 66 71 73 80 73 65 66 46 35 36 27 28 21 20 24 30 36 41 43 48 43 42 43 42 40 41 52 58 60 58 58 56 55 54 54 55 54 54
48 49 49 48 56 62 68 72 77 80 73 68 69 51 40 33 29 25 20 14 12 13 19 28 33 37 39 42 46 43 39 39 44 44 52 56 56 56 55 52 52 50 50 51 52
49 51 50 50 60 65 71 75 80 81 73 69 55 47 39 27 27 17 13 9 6 5 12 20 31 29 32 36 31 34 37 38 40 44 45 50 53 53 51 49 48 48 47 49 49
50 52 50 55 63 69 74 79 79 81 71 57 50 40 27 22 16 11 8 5 9 6 10 18 34 32 31 33 38 36 34 35 37 40 44 46 48 49 48 46 45 43 44 45 46
51 53 53 59 65 73 76 80 80 79 73 58 46 30 24 17 11 11 11 10 6 9 5 14 24 27 32 31 27 32 30 28 34 35 39 44 43 45 44 43 42 41 41 42 43
54 55 56 63 70 76 78 80 81 74 63 49 35 22 13 14 11 11 6 4 7 4 7 6 16 27 29 28 27 28 30 28 29 30 33 36 39 41 41 41 41 40 40 41 42
55 59 60 65 71 77 79 81 79 71 61 43 25 13 9 7 7 7 4 6 2 7 7 13 13 16 20 24 26 26 27 25 25 28 29 30 33 37 39 39 40 40 39 39 39
57 58 62 66 73 78 78 81 78 69 51 27 16 9 7 4 5 4 5 3 5 4 8 9 10 12 16 17 19 19 24 25 26 26 26 27 30 32 34 35 34 34 36 36 37
59 60 63 69 74 77 77 81 77 62 37 15 7 5 8 8 4 2 5 3 5 8 17 6 10 13 15 14 16 17 19 22 25 21 23 25 26 29 30 30 29 30 34 36 38
61 62 63 70 75 77 79 79 73 47 22 11 9 4 2 2 3 2 5 6 8 11 12 10 11 14 17 20 16 16 18 20 18 18 18 20 23 26 26 26 28 32 35 36 38
62 62 66 71 74 75 76 76 65 35 10 4 8 4 3 1 1 4 5 8 8 11 17 13 7 14 19 22 20 18 18 20 20 18 18 18 19 21 23 26 28 31 31 34 36
63 61 65 70 72 76 78 74 56 25 4 8 6 5 5 7 1 4 2 6 9 9 11 17 14 11 13 21 21 19 21 19 18 18 17 16 18 18 20 25 27 27 28 30 30
60 61 65 68 71 74 74 66 45 17 5 9 4 5 5 7 3 2 4 6 8 7 10 16 20 17 15 16 22 21 20 20 20 18 17 17 17 19 20 20 21 23 25 26 28
58 61 65 67 71 72 71 58 36 11 4 7 4 3 4 4 5 6 1 6 6 7 11 11 16 16 13 16 17 18 18 17 15 15 14 14 17 18 19 20 20 20 20 21 22
56 61 65 68 69 71 67 51 24 9 5 8 4 2 3 4 4 7 6 1 9 11 12 17 9 13 13 14 16 19 18 18 15 15 16 17 19 20 19 18 17 17 18 19 21
55 59 65 68 68 67 61 42 20 5 6 6 4 4 4 5 7 8 9 3 5 12 12 16 11 13 16 12 14 19 18 19 16 13 14 16 18 16 15 14 14 15 16 18 19
55 59 64 66 66 64 52 31 16 1 8 6 3 5 6 7 7 12 11 5 2 12 7 10 16 11 13 10 13 16 15 15 16 17 18 16 14 13 12 12 12 13 14 16 20
Wind_Direction
303 302 305 310 314 314 318 319 317 315 314 316 314 312 315 313 306 302 298 292 288 282 273 266 262 258 255 254 252 249 246 243 241 241 235 231 232 232 233 231 231 230 230 225 223
311 302 302 307 310 309 314 315 316 315 318 317 312 311 313 309 304 300 294 292 287 283 276 266 260 258 255 251 248 246 246 245 242 238 235 228 231 230 230 230 229 229 228 228 226
304 296 301 301 304 306 312 313 315 318 317 315 313 314 311 308 303 294 293 289 285 282 277 267 256 252 253 252 250 248 246 244 242 237 234 229 227 230 229 228 228 226 227 227 228
316 308 306 304 305 312 314 314 317 318 319 317 316 317 312 308 300 296 289 284 281 278 271 265 258 252 246 245 244 245 245 243 242 238 234 229 226 228 230 227 226 226 226 227 226
314 310 313 308 316 316 312 314 317 320 321 319 319 316 319 312 300 296 293 288 282 275 265 255 252 248 246 241 240 237 237 237 239 238 234 231 226 225 227 228 226 226 225 225 227
311 311 311 309 319 312 312 317 321 321 321 320 317 316 309 304 302 297 292 285 278 271 261 251 246 242 241 240 239 236 231 228 228 231 230 230 228 224 225 227 226 226 225 224 224
317 315 314 314 324 320 316 321 321 323 324 324 319 314 308 306 302 298 292 285 273 265 257 248 239 236 235 236 237 237 232 228 223 222 223 226 226 226 224 224 226 226 226 226 224
320 317 314 318 321 319 322 323 326 324 323 324 321 314 308 308 306 300 295 284 267 256 244 240 235 234 230 231 231 235 233 229 225 223 220 222 224 225 226 224 225 226 227 227 227
321 317 314 317 320 322 325 328 326 323 324 321 316 313 315 313 309 304 294 279 265 248 237 232 230 230 232 229 231 232 235 232 228 223 225 220 220 223 224 225 224 226 227 228 228
321 319 317 321 322 323 325 329 326 323 320 318 318 317 317 312 305 304 295 281 264 246 230 225 226 228 233 229 231 233 236 236 230 223 225 224 218 220 223 225 224 224 224 227 229
324 323 322 325 320 326 329 326 324 324 321 319 317 320 320 311 305 309 300 292 259 245 227 220 223 224 226 239 236 237 232 234 233 229 228 227 224 220 220 224 227 226 225 227 229
326 326 329 323 322 327 328 329 327 326 324 322 323 325 321 315 311 311 301 296 261 237 226 218 219 221 224 219 230 235 230 230 229 227 227 226 225 224 219 223 226 229 229 228 229
326 328 330 324 324 326 328 327 328 329 326 323 328 325 318 311 314 309 308 289 211 212 220 204 218 220 217 215 217 216 226 227 228 227 226 225 224 223 222 222 225 228 230 231 231
326 329 327 322 324 327 328 328 330 330 328 330 330 320 312 310 315 314 309 269 172 229 236 219 215 217 212 213 220 228 228 226 225 228 229 223 225 222 221 220 221 224 227 231 232
326 330 326 323 327 329 329 330 332 331 328 328 323 316 310 322 337 337 319 238 232 232 279 220 201 203 197 201 203 203 202 218 222 227 228 227 228 221 222 221 221 223 225 229 233
331 330 324 323 327 330 330 333 332 330 330 325 320 310 309 319 336 349 47 323 199 259 171 144 173 193 193 201 215 205 215 218 218 221 225 222 223 222 220 219 219 222 226 228 231
330 330 326 324 328 330 333 334 334 334 329 325 322 313 293 301 337 6 86 104 257 203 185 194 190 188 188 193 200 205 210 214 219 218 220 218 217 217 218 217 219 220 223 227 231
330 328 327 325 329 331 334 335 334 331 329 323 321 320 331 307 339 74 60 149 174 211 168 154 174 184 190 192 198 205 206 208 208 215 214 214 217 213 216 217 219 221 225 228 232
328 325 326 326 330 331 336 336 334 332 331 334 313 308 333 340 336 79 127 155 208 196 201 211 201 194 188 176 189 190 194 202 208 214 212 208 209 211 212 216 224 229 232 233 235
326 323 325 326 330 334 338 338 333 333 339 3 346 280 339 267 308 301 184 166 191 199 191 194 196 190 179 180 181 191 187 197 201 202 205 204 205 208 214 220 228 233 233 234 234
323 322 325 327 332 336 339 339 333 335 344 9 302 287 235 78 357 67 169 183 178 185 197 175 178 189 189 187 195 198 199 202 200 203 200 202 210 214 219 222 226 229 229 228 229
321 322 325 329 334 337 340 339 334 338 313 247 290 291 236 235 38 125 88 198 180 202 194 200 194 185 192 201 199 198 198 206 209 209 210 210 210 211 214 217 218 217 219 224 228
316 321 326 330 335 340 342 340 334 339 313 235 262 299 272 252 248 149 216 148 191 195 199 203 197 201 195 197 199 200 203 211 213 208 205 204 201 205 205 205 209 215 219 223 228
317 322 328 331 336 341 342 340 330 343 218 230 241 296 309 274 258 242 233 198 175 166 175 194 202 198 202 213 206 204 212 211 207 202 195 196 196 194 193 200 204 208 214 219 225
319 325 329 334 339 343 343 340 332 339 228 207 225 255 292 305 277 235 242 260 199 194 198 192 197 202 188 184 200 197 199 199 195 191 188 188 191 195 199 201 208 215 223 231 237
321 328 328 335 341 344 342 338 333 337 196 191 236 270 273 265 239 232 219 232 212 203 195 203 196 186 193 205 195 194 205 207 200 186 179 186 193 196 200 206 215 225 235 243 250
324 329 330 338 343 344 341 337 332 82 202 186 247 295 281 291 240 223 217 217 202 193 194 184 193 203 192 208 201 202 203 192 185 179 182 189 192 196 209 222 236 248 258 268 276